Find Starlink 37561

NORAD ID: 69821 Int'l Des: 2026-154 Owner: SPXS Country: US Constellation: starlink operational
LEOCIRCULAR

現在のビュー

3D地球を読み込み中...

About Starlink 37561

Starlink 37561 (NORAD 69821) is a starlink constellation satellite (v2 mini) launched Jul 5, 2026 by SPXS of US. It operates in LEO, CIRCULAR orbit with a mass of 575.00 kg.

次回通過

Passes for default location (London). Set your location on the main map for personalized predictions.

高度履歴

Loading altitude history...

軌道要素

1 69821U 26154C 26221.83655808 -.00429437 00000-0 -87570-2 0 9990
2 69821 53.1583 166.3456 0001146 76.0219 284.0917 15.47245681 6843
Epoch: Aug 9, 2026 • Age: 12 hours

現在のステータス

高度 445.4 km
遠地点 / 近地点 N/A
速度 7.64 km/s
衛星直下点 -53.28°S, 8.94°W
打ち上げ日 Jul 5, 2026
運用期間 35 days
タイプ internet

技術仕様

分類 Payload
質量 575.00 kg
乾燥質量 530.00 kg
総質量 575.00 kg
長さ 0.30 m
直径 4.10 m
スパン 29.00 m
形状 Box + pan
製造者 SPXS
バスタイプ Starlink V2MO
フェーズステータス In Orbit
所有者/国 SPXS/US

Most Searched